Location: *
(34.8620°S, 39.3380°E)
Time: 23:49:59
(UTC+00:00)

Cosmos 1184 Rocket - Pass Details

Date: 27 July 2021
Orbit: 399 x 410 km, 81.2° (Epoch: 20 September)

Event Time Altitude Azimuth Distance (km) Brightness Sun altitude
Rises 02:28:34 0° 3° (N) 2,337 6.7 -23.0°
Reaches altitude 10° 02:30:36 10° 8° (N) 1,487 5.7 -22.6°
Maximum altitude 02:33:45 51° 84° (E) 536 3.6 -21.9°
Drops below altitude 10° 02:36:58 10° 161° (SSE) 1,517 5.7 -21.3°
Sets 02:39:03 0° 166° (SSE) 2,391 6.6 -20.9°
